Weather Service Report


880 
ASUS43 KMPX 220501
RWRMN 
WEATHER ROUNDUP FOR MINNESOTA
NATIONAL WEATHER SERVICE TWIN CITIES/CHANHASSEN MN
1100 PM CST SUN DEC 21 2014


NOTE: "FAIR" INDICATES FEW OR NO CLOUDS BELOW 12,000 FEET WITH NO
SIGNIFICANT WEATHER AND/OR OBSTRUCTIONS TO VISIBILITY. N/A MEANS
CURRENT SKY AND/OR WEATHER CONDITIONS ARE NOT AVAILABLE.

MNZ060>063-068>070-220600-
   Twin Cities Metro   
  
CITY           SKY/WX    TMP DP  RH WIND       PRES   REMARKS
TWIN CITIES    CLOUDY    38  35  89 SE9       29.72F                  
ST PAUL        CLOUDY    37  36  96 SE9       29.74F FOG              
CRYSTAL        CLOUDY    39  36  89 S10       29.70F FOG              
BLAINE         CLOUDY    39  39 100 S12       29.71F FOG              
LAKEVILLE      CLOUDY    37  36  93 S10       29.72F                  
EDEN PRAIRIE   CLOUDY    38  36  92 S10       29.70F FOG              
SOUTH ST PAUL  CLOUDY    38  37  94 S9        29.74S FOG              
LAKE ELMO      DRIZZLE   37  36  93 S9        29.75R                  
$$
MNZ001>005-007-008-013>017-022>024-027-028-220600-
   Northwest Minnesota   
  
CITY           SKY/WX    TMP DP  RH WIND       PRES   REMARKS
BEMIDJI        CLOUDY    32  32  99 SE10      29.61S FOG     WCI  24  
HALLOCK        CLOUDY    34  30  86 CALM      29.58F                  
ROSEAU         CLOUDY    34  28  80 SE7       29.61S WCI  28          
WARROAD        CLOUDY    34  28  80 SE8       29.62S WCI  27          
THIEF RVR FALL CLOUDY    34  30  86 SE8       29.59S WCI  27          
CROOKSTON      CLOUDY    34  32  93 S10       29.59S WCI  26          
FOSSTON        CLOUDY    32  30  93 S8        29.59S WCI  25          
DETROIT LAKES  CLOUDY    34  34 100 SE9       29.58S FOG     WCI  26  
MOORHEAD       CLOUDY    36  36 100 SE8       29.56F FOG              
PARK RAPIDS    CLOUDY    34  33  96 SE12      29.60S FOG     WCI  25  
MAHNOMEN       CLOUDY    33  32  96 SE7       29.57F WCI  27          
$$
MNZ006-009>011-018-025>026-220600-
   North Central Minnesota   
  
CITY           SKY/WX    TMP DP  RH WIND       PRES   REMARKS
BAUDETTE       CLOUDY    33  30  88 SE7       29.63S WCI  27          
FLAG ISLAND    CLOUDY    32  30  93 SE13      29.63S WCI  22          
INTL FALLS     CLOUDY    32  31  96 SE6       29.67R WCI  26          
WASKISH        CLOUDY    34  32  93 CALM      29.63S                  
BIG FORK       CLOUDY    34  32  93 SE7       29.66S FOG     WCI  28  
LONGVILLE      CLOUDY    34  34 100 SE7       29.64F FOG     WCI  28  
GRAND RAPIDS   CLOUDY    34  32  93 SE8       29.66S WCI  27          
CRANE LAKE     CLOUDY    30  30 100 CALM      29.72S                  
ORR            CLOUDY    32  30  93 SE3       29.66S                  
COOK           CLOUDY    34  32  93 SE6       29.69S FOG     WCI  29  
WALKER         CLOUDY    32  32  99 SE5       29.62S FOG     WCI  28  
$$
MNZ012-019>021-037-220600-
   Northeast Minnesota   
  
CITY           SKY/WX    TMP DP  RH WIND       PRES   REMARKS
DULUTH         FOG       34  32  92 SE8       29.70F VSB 1   WCI  27  
ELY            CLOUDY    32  30  93 S7        29.71S FOG     WCI  26  
HIBBING        CLOUDY    33  31  92 S8        29.68S FOG     WCI  26  
EVELETH        CLOUDY    32  32 100 SE7       29.71S FOG     WCI  26  
DULUTH HARBOR  CLOUDY    36  34  93 CALM      29.75S                  
TWO HARBORS    CLOUDY    37  32  81 S2        29.72S                  
SILVER BAY     CLOUDY    36  34  93 CALM      29.73S                  
GRAND MARAIS     N/A     37  34  89 S12       29.79S                  
G MARAIS ARPRT MIX PCPN  30  28  93 S6        29.75S VSB<1/4 WCI  24  
$$
MNZ029>031-032-039>041-046>048-054>057-064-220600-
   West Central Minnesota   
  
CITY           SKY/WX    TMP DP  RH WIND       PRES   REMARKS
FERGUS FALLS   CLOUDY    36  36 100 SE13      29.59S FOG              
WHEATON        CLOUDY    32  32 100 SE10      29.56S FOG     WCI  24  
MORRIS         CLOUDY    36  36 100 SE16      29.56S FOG              
ALEXANDRIA     CLOUDY    35  34  96 SE17      29.59F FOG     WCI  25  
ELBOW LAKE     CLOUDY    34  34 100 SE13      29.56S FOG     WCI  25  
WADENA         CLOUDY    34  34 100 SE8       29.60S FOG     WCI  27  
GLENWOOD       CLOUDY    36  36 100 SE13      29.61S FOG              
APPLETON       CLOUDY    37  36  93 SE10G16   29.57S                  
BENSON         CLOUDY    37  36  93 S13       29.58F FOG              
ORTONVILLE     CLOUDY    36  34  93 SE14      29.54S FOG              
MADISON        PTCLDY    39  37  93 SE12      29.56R                  
WILLMAR        CLOUDY    37  36  93 SE12      29.63S FOG              
$$
MNZ033>034-036-042>043-049>051-058-059-220600-
   Central Minnesota     
  
CITY           SKY/WX    TMP DP  RH WIND       PRES   REMARKS
ST CLOUD       CLOUDY    38  35  89 S10       29.67S FOG              
SAUK CENTRE    CLOUDY    34  34 100 SE9       29.63S FOG     WCI  27  
PAYNESVILLE    DRIZZLE   33  33 100 E10G16    29.64S WCI  25          
AITKIN         MIX PCPN  36  30  80 SE7       29.66R                  
PINE RIVER     DRIZZLE   34  34 100 SE7       29.68S WCI  28          
BRAINERD       CLOUDY    34  34 100 SE10      29.66S FOG     WCI  26  
STAPLES        CLOUDY    34  34 100 SE6       29.62S FOG     WCI  29  
LONG PRAIRIE   MIX PCPN  34  34 100 SE12      29.63S WCI  25          
LITTLE FALLS   CLOUDY    34  34 100 SE7       29.65F FOG     WCI  28  
LITCHFIELD     CLOUDY    37  37 100 SE7       29.66S FOG              
BUFFALO        CLOUDY    37  36  94 S7        29.69S FOG              
MAPLE LAKE     CLOUDY    37  37 100 SE6       29.69R FOG              
$$
MNZ037-044-045-052-053-220600-
   East Central Minnesota   
  
CITY           SKY/WX    TMP DP  RH WIND       PRES   REMARKS
PRINCETON      CLOUDY    37  36  93 SE8       29.70S FOG              
MORA           CLOUDY    34  32  93 SE3       29.72S                  
CAMBRIDGE      RAIN      37  32  81 SE6       29.69S                  
RUSH CITY      LGT RAIN  35  34  96 SE7       29.72S WCI  29          
MOOSE LAKE     CLOUDY    34  34 100 S6        29.69S FOG     WCI  29  
HINCKLEY       LGT RAIN  36  36 100 CALM      29.72S                  
CLOQUET        CLOUDY    34  34 100 SE6       29.71R FOG     WCI  29  
MCGREGOR       CLOUDY    34  34 100 SE8       29.68S VSB 3/4 WCI  27  
$$
MNZ071>073-080-081-089-090-097-098-220600-
   Southwest Minnesota   
  
CITY           SKY/WX    TMP DP  RH WIND       PRES   REMARKS
MONTEVIDEO     CLOUDY    36  36 100 S9        29.59S                  
GRANITE FALLS  CLOUDY    37  36  96 SE9       29.60S FOG              
CANBY          CLOUDY    38  36  92 SE10      29.55S                  
MARSHALL       CLOUDY    37  34  87 S14       29.57S                  
REDWOOD FALLS  CLOUDY    37  36  96 SE17      29.62S FOG              
OLIVIA         CLOUDY    36  36 100 SE13      29.63R FOG              
PIPESTONE      CLOUDY    37  36  93 S17G23    29.54S FOG              
WINDOM         CLOUDY    37  37 100 SE14      29.62S FOG              
WORTHINGTON    CLOUDY    37 -11  12 S17G24    29.60S                  
JACKSON        CLOUDY    37  36  93 S13       29.64S FOG              
TRACY          CLOUDY    38  37  94 S16G22    29.57F                  
SLAYTON        CLOUDY    36  36 100 S16       29.58F FOG              
$$
MNZ065>067-074>077-082>085-091>093-220600-
   South Central Minnesota  
  
CITY           SKY/WX    TMP DP  RH WIND       PRES   REMARKS
MANKATO        CLOUDY    37  34  87 S16       29.69F                  
NEW ULM        CLOUDY    37  37 100 SE14      29.66F FOG              
ST JAMES       CLOUDY    37  37 100 SE13      29.67S FOG              
FAIRMONT       CLOUDY    37  34  87 S15G21    29.67S                  
GLENCOE        CLOUDY    38  38  99 SE10      29.67F FOG              
FARIBAULT      CLOUDY    37  37 100 SE17      29.72S FOG              
OWATONNA       CLOUDY    37  36  93 SE14G23   29.72F FOG              
WASECA         CLOUDY    36  34  93 SE13G18   29.72F FOG              
ALBERT LEA     FOG       37  37 100 S14       29.72F VSB 1/2          
$$
MNZ078>079-086>088-094>096-220600-
   Southeast Minnesota   
  
CITY           SKY/WX    TMP DP  RH WIND       PRES   REMARKS
ROCHESTER      CLOUDY    36  35  96 S18G25    29.77S FOG              
RED WING       LGT RAIN  39  37  93 S12       29.76S                  
STANTON        CLOUDY    39  36  89 S16G24    29.72F                  
DODGE CENTER   LGT RAIN  37  37 100 S20       29.74F                  
WINONA         LGT RAIN  37  36  93 S9G16     29.82S                  
AUSTIN         DRIZZLE   37  37 100 S9G16     29.75S                  
PRESTON        CLOUDY    35  34  96 S14G21    29.79S FOG     WCI  26  
$$
ABBREVIATIONS USED IN REMARKS
   TC - TEMPERATURES IN CELSIUS
  WCI - WIND CHILL INDEX
   HX - HEAT INDEX
  VSB - VISIBILITY 
$$

Return to Home page


Western Regional Climate Center, wrcc@dri.edu